Weather in Selivanovka

Russia / Stavropol Krai     44°30′01″N   44°01′19″E
temp.,
°C
wind,
m/s
gust,
m/s
humid.,
%
clouds,
%
prec.,
mm/h
press.,
hPa
HPBL,
m
4 december, sat
sat400:00+3ese00925 0.0 101910
03:00+3nw119177 0.0 102010
06:00+2wsw228476 0.0 102011
09:00+5sw22589 0.0 102048
12:00+11ssw11395 0.0 1018208
15:00+12ese23421 0.0 101782
18:00+7se345669 0.0 101657
21:00+6se3361100 0.0 101442
5 december, sun
sun500:00+5se346393 0.0 101346
03:00+4se226320 0.0 101213
06:00+4se1260100 0.0 101210
09:00+6e0054100 0.0 101311
12:00+9nw224391 0.0 1013228
15:00+9w0148100 0.0 101311
18:00+7sse2252100 0.0 101515
21:00+6ssw225465 0.0 101617
6 december, mon
mon600:00+6sw225333 0.0 101713
03:00+5wsw115392 0.0 101810
06:00+5s1154100 0.0 101910
09:00+7s11515 0.0 102113
12:00+11sse344018 0.0 1020352
15:00+12sse244672 0.0 1021181
18:00+8sse3363100 0.0 102228
21:00+7sse34765 0.0 102261
7 december, tue
tue700:00+6sse35865 0.0 102270
03:00+6ese33885 0.0 102240
06:00+4ese35895 0.0 102271
09:00+6ese37835 0.0 1022174
12:00+11ese58590 0.0 1020422
15:00+12ese6126238 0.0 1018638
18:00+9ese512695 0.0 1018378
21:00+7ese6139395 0.0 1016487
8 december, wed
wed800:00+8ese71180100 0.0 1014698
03:00+9ese6977100 0.0 1012734
06:00+9ese5876100 0.0 1011510
09:00+9ese4675100 0.0 1010699
12:00+10se3473100 0.0 1009772
15:00+11ne116819 0.0 1007689
18:00+8nw228010 0.0 100811
21:00+7w3483100 0.0 100962